Location: Claflin County Park
(44.8478°N, 87.5507°W)
Time: 14:58:01
(UTC+00:00)

Cosmos 1092 Rocket - Pass Details

Date: 10 December 2025
Orbit: 953 x 995 km, 83.0° (Epoch: 19 January)

Event Time Altitude Azimuth Distance (km) Brightness Sun altitude
Rises 11:04:23 0° 182° (S) 3,684 7.1 -22.6°
Reaches altitude 10° 11:06:54 10° 181° (S) 2,735 6.5 -22.2°
Maximum altitude 11:13:10 79° 95° (E) 1,002 4.1 -21.1°
Drops below altitude 10° 11:19:24 10° 11° (N) 2,725 6.3 -20.0°
Sets 11:21:54 0° 10° (N) 3,670 7.0 -19.6°
